Theta_e
321 322 324 327 325 324 331 331 334 339 333 330 332 331 329 330 331 333 335 336 343 342 343 345 340 337 337 343 344 341 342 344 344 347 351 350 344 342 344 341 343 346 341 339 336 331 328 333 334 338 343 344 344 345 345 345 344 343 339 340 342 343 342 342 341 342 341 339 337 331 327 327 330 338 341 341 341 341 340 338 339 339 338 337 337 337 337 337 336 336 335 335 334 333 327 323 331
319 322 324 325 323 325 337 330 332 337 328 328 331 333 333 332 331 332 336 339 348 344 344 347 341 335 334 339 341 346 349 345 344 348 351 344 341 343 343 342 344 345 341 338 335 329 330 333 332 336 342 343 344 344 344 345 344 342 341 342 343 343 342 342 342 342 341 339 337 333 331 330 333 339 341 341 340 341 340 338 339 339 338 337 337 338 337 337 337 335 335 335 334 333 329 324 325
318 323 323 323 324 327 333 326 329 330 325 328 332 339 334 329 331 333 337 338 343 338 337 339 340 337 335 343 343 348 350 349 352 354 352 342 343 345 342 344 345 345 342 338 333 328 330 332 331 333 337 341 344 345 344 345 344 342 341 342 343 343 342 342 341 341 340 339 338 335 330 329 336 340 340 340 340 341 339 338 339 339 338 337 337 338 338 337 337 334 332 333 334 333 330 327 326
318 322 322 321 326 328 329 326 332 330 325 331 331 336 331 329 333 334 337 338 336 335 338 336 341 338 335 346 344 348 349 350 354 356 356 343 343 345 343 346 346 347 343 337 331 327 329 331 330 331 333 337 342 344 344 345 344 341 342 342 342 343 342 342 342 341 340 340 337 329 325 330 338 340 341 340 340 340 339 338 339 339 338 338 338 338 338 337 337 331 327 327 329 330 326 324 325
319 322 321 320 327 330 328 326 334 329 327 335 332 335 333 330 336 336 337 336 334 334 336 335 340 334 337 346 343 353 353 352 350 347 350 343 343 344 345 349 347 348 344 337 331 328 328 330 330 329 330 333 339 344 345 345 344 342 343 343 342 342 342 342 341 340 340 340 334 323 327 336 340 340 340 340 339 339 339 338 339 339 338 338 338 338 338 338 336 329 325 324 323 325 323 322 323
319 321 321 321 325 326 326 323 327 327 327 336 339 342 335 331 336 339 340 336 335 333 331 332 336 337 348 348 343 353 350 353 352 345 345 342 344 344 347 349 347 348 344 336 333 331 329 332 331 330 330 333 339 343 344 344 343 343 343 343 343 342 340 341 340 340 340 341 334 327 335 340 340 341 340 340 339 339 339 339 339 339 339 338 338 338 338 338 335 327 324 324 323 325 324 324 323
318 321 323 323 325 323 325 325 323 324 326 331 339 340 330 331 335 337 341 337 335 332 331 331 335 344 352 350 349 350 344 348 349 344 344 343 344 345 348 349 348 347 342 338 339 337 335 337 334 332 333 334 338 340 343 343 343 343 342 342 342 341 340 340 340 339 340 341 336 331 338 340 339 341 339 339 339 339 339 339 339 339 339 338 338 338 338 338 334 327 325 324 324 325 325 325 325
318 322 323 321 325 323 324 324 322 322 325 328 332 332 327 329 331 334 336 334 335 333 332 332 335 344 347 351 358 351 344 344 341 343 344 344 344 346 349 348 348 346 343 343 344 343 340 340 336 334 334 335 338 340 342 342 343 342 341 340 340 340 340 340 340 340 341 342 338 331 337 340 339 340 338 339 339 339 339 339 339 338 339 338 338 338 338 338 332 326 326 324 324 325 326 326 326
317 321 321 319 322 322 322 321 321 322 323 325 326 328 329 328 329 331 332 333 335 333 331 331 333 340 347 354 358 350 347 343 341 346 345 344 345 347 349 347 348 346 346 346 345 346 342 340 338 336 335 335 338 339 340 341 342 341 339 338 338 340 339 341 340 340 340 341 338 330 335 340 340 340 339 339 338 339 339 339 339 339 339 338 338 338 338 337 330 326 327 325 324 325 326 327 327
317 319 321 320 320 319 317 318 319 321 321 324 325 328 329 327 329 330 331 332 332 333 332 332 337 342 350 355 355 352 349 344 343 346 345 344 345 347 347 346 347 346 346 346 345 345 341 339 338 337 336 335 337 338 338 339 339 339 339 339 339 339 340 341 341 341 340 341 335 330 336 340 340 340 339 339 339 338 339 339 339 339 338 338 338 338 337 333 327 326 327 326 325 325 326 327 327
318 318 319 319 318 316 315 316 317 321 322 324 326 326 327 328 329 329 330 331 330 333 332 335 344 348 350 354 353 350 346 344 345 346 345 344 346 346 346 346 345 345 345 344 344 342 339 339 339 337 336 335 337 338 338 338 337 338 340 339 339 340 340 341 341 341 340 339 332 332 339 339 340 340 339 339 338 338 338 338 338 338 338 338 338 338 336 330 327 327 327 326 325 325 326 327 327
319 318 318 317 318 316 315 315 316 322 323 326 328 325 327 328 327 328 330 332 332 332 334 336 343 348 352 354 352 347 345 345 344 345 345 343 345 345 344 345 344 345 344 343 343 341 338 339 340 339 340 339 339 339 338 338 338 339 339 339 339 339 341 341 341 340 341 338 329 334 340 339 340 339 339 338 338 337 336 337 337 336 337 336 336 337 335 330 327 327 327 327 325 325 325 326 326
317 318 317 318 320 318 316 314 317 324 324 326 328 325 326 328 327 328 329 331 332 332 334 335 338 345 352 353 350 347 347 346 344 344 344 343 344 343 343 344 344 343 342 342 341 342 340 340 340 340 341 341 339 339 338 339 339 339 339 338 339 339 340 341 341 340 341 336 331 336 340 339 340 339 339 338 337 336 335 335 335 335 335 335 336 337 335 332 329 327 327 327 326 325 325 325 325
316 318 318 319 320 318 317 316 318 320 321 325 325 323 324 326 327 327 330 329 331 333 332 332 336 345 353 353 352 348 348 345 344 343 342 343 342 342 342 342 343 341 342 342 340 343 342 340 341 340 341 340 338 338 337 339 339 339 339 339 339 340 341 341 341 341 340 335 333 338 339 339 339 339 339 338 337 335 333 332 332 335 335 334 336 336 333 333 331 328 327 327 326 326 325 325 325
315 317 318 319 318 316 317 317 319 318 321 326 323 322 321 323 327 328 329 328 330 331 329 331 333 342 351 357 360 349 346 345 344 343 342 342 340 341 341 341 341 341 343 342 341 344 342 340 341 340 340 339 338 338 338 339 339 339 339 340 340 341 341 341 341 341 340 335 334 338 338 339 339 340 339 337 336 334 333 332 332 331 331 332 335 334 330 332 332 328 327 327 327 326 325 326 325
315 316 316 318 315 314 318 319 319 318 322 326 323 323 321 322 327 328 328 328 330 327 328 331 330 337 345 354 362 349 344 346 344 343 342 342 340 340 340 340 341 342 343 342 342 343 342 340 339 338 338 337 337 338 338 339 339 339 339 339 340 341 341 341 342 341 338 334 333 337 339 339 340 341 339 338 337 335 333 334 332 327 325 326 333 335 327 327 331 328 328 327 327 326 325 325 325
314 315 316 316 314 314 319 322 320 319 324 328 323 321 320 322 326 326 326 327 329 330 338 342 339 346 346 346 349 345 345 346 344 342 342 341 341 341 341 341 341 342 343 342 342 342 343 341 337 336 336 336 337 338 338 339 339 340 339 339 340 341 341 341 342 341 337 334 333 337 340 340 340 341 340 339 338 337 334 335 333 326 323 321 329 336 326 323 329 328 328 327 327 326 325 325 325
315 318 316 314 317 318 320 321 321 322 322 324 322 321 321 323 323 324 329 330 330 338 350 353 353 352 347 346 344 344 346 345 344 342 342 341 342 342 341 342 341 342 341 341 341 341 343 342 337 334 335 337 338 338 338 338 340 341 340 340 340 341 341 340 341 339 335 334 335 338 340 340 340 341 340 339 338 338 335 335 333 326 324 320 325 332 325 322 327 327 328 327 326 326 325 324 324
316 321 319 317 322 323 322 321 320 322 320 321 322 320 321 322 322 322 329 333 334 346 353 354 363 356 346 347 345 346 347 345 345 342 342 342 342 342 342 342 341 341 341 341 340 341 342 342 338 334 337 339 339 339 338 339 340 340 340 340 341 340 341 341 340 337 333 333 337 339 340 339 340 340 339 339 338 338 336 335 333 326 324 321 323 328 326 324 325 327 328 326 326 326 325 324 324
317 320 321 323 324 322 321 320 320 321 319 321 321 321 322 321 322 319 326 332 335 349 356 355 364 360 350 348 345 345 345 345 345 343 343 342 342 342 342 342 341 341 341 341 341 340 341 342 340 337 338 338 339 339 339 339 340 340 341 340 340 340 341 341 339 336 333 333 336 337 338 338 339 340 339 339 338 338 337 335 333 327 323 322 324 328 327 325 325 327 328 327 326 326 325 324 326
318 319 322 325 321 320 319 319 321 321 319 320 321 321 322 321 321 319 322 327 330 340 348 353 359 356 350 347 345 344 344 344 344 343 343 342 342 342 342 342 341 341 341 342 342 340 341 341 340 340 339 338 339 340 339 340 340 340 340 340 339 340 340 340 337 334 333 334 334 334 336 338 338 339 339 339 339 338 338 337 334 328 324 322 323 327 326 325 326 328 328 327 326 325 325 324 326
319 319 321 322 319 318 319 319 320 321 319 321 321 320 321 320 320 320 320 322 328 334 337 344 351 350 348 347 345 344 344 345 344 343 343 342 342 342 342 341 341 341 341 341 342 341 341 341 340 341 340 339 340 340 339 341 341 340 340 339 338 339 340 339 336 334 334 334 333 333 335 338 338 339 338 339 339 339 338 338 335 327 323 321 321 324 325 326 328 327 327 327 325 323 324 323 325
317 319 320 319 318 318 319 319 320 321 320 320 321 320 320 319 319 321 320 321 326 330 334 343 347 347 346 345 345 345 346 345 344 343 343 343 343 342 342 340 340 340 340 340 342 341 340 341 341 341 341 340 341 340 340 341 342 340 338 338 338 339 339 339 337 335 335 335 334 334 336 337 338 338 338 338 339 339 338 338 335 327 322 321 320 321 321 323 324 324 324 323 322 321 321 321 323
316 319 320 320 319 319 319 319 320 320 320 320 320 319 319 319 320 322 322 322 325 328 336 345 346 345 345 345 346 345 345 345 344 342 343 344 344 343 342 341 341 340 340 340 341 341 340 340 341 341 341 340 340 340 339 341 342 340 338 338 338 338 339 338 336 335 337 338 337 337 337 336 336 337 337 337 338 339 338 337 335 328 322 321 321 322 322 321 322 323 321 319 319 318 318 319 321
317 318 318 319 319 320 320 319 320 320 320 321 320 319 319 319 319 321 321 321 327 332 338 345 346 345 346 346 346 345 344 344 344 342 343 344 344 342 340 341 341 339 340 340 340 341 340 340 340 340 340 340 340 340 339 340 341 340 339 338 338 338 339 336 334 337 339 340 339 339 338 337 336 337 337 337 338 339 338 338 335 328 324 321 322 327 329 328 329 329 325 320 321 320 321 323 325
317 317 317 317 317 318 319 319 319 319 320 320 319 319 319 319 317 319 325 323 327 335 340 345 347 347 348 346 346 345 344 344 344 343 343 343 343 341 338 339 340 340 340 341 340 340 340 339 340 340 339 340 340 340 339 339 340 339 338 338 338 339 337 334 334 338 340 339 339 339 339 337 336 337 337 337 338 339 338 338 336 331 328 326 326 330 332 332 333 333 331 328 328 329 329 331 331
317 317 317 317 317 317 317 318 318 319 320 319 319 319 319 319 316 323 335 328 327 337 343 346 347 348 348 346 346 345 345 344 343 343 343 342 343 341 338 337 338 339 340 340 341 340 339 339 340 340 339 340 340 339 339 339 339 339 339 339 338 338 336 334 337 339 340 340 339 339 338 337 336 336 336 337 338 338 338 338 336 334 333 332 332 332 332 333 332 332 333 333 333 333 333 333 333
318 317 317 317 317 316 316 317 318 318 319 319 319 318 319 318 316 323 330 326 328 339 344 345 347 348 348 346 346 345 345 344 342 343 344 342 342 342 339 338 338 337 338 339 340 340 339 340 340 340 339 340 340 339 339 339 339 338 339 339 339 338 336 335 338 338 339 340 340 339 338 337 336 335 336 337 338 338 338 338 336 335 334 334 334 333 332 333 333 333 333 333 334 334 334 334 333
318 317 317 317 316 316 317 317 317 317 318 319 319 317 318 318 318 322 322 324 331 339 344 345 345 346 347 347 346 345 343 342 342 342 343 342 343 342 340 340 340 338 339 339 339 340 339 339 340 339 339 339 340 339 339 339 338 338 339 339 339 338 337 336 337 337 337 338 339 339 338 337 335 335 335 336 338 339 337 337 337 335 335 335 334 333 333 333 333 333 333 334 334 334 334 335 334
318 317 316 316 316 316 317 317 317 317 317 319 318 314 316 320 320 322 320 322 332 339 343 344 344 346 347 347 345 342 340 340 343 342 342 343 342 343 342 341 341 340 340 339 339 340 339 339 339 339 339 340 340 339 339 338 338 339 339 339 339 339 338 337 337 337 337 336 337 338 337 337 335 335 335 335 337 337 337 338 337 336 335 335 335 334 334 333 333 334 334 334 335 335 335 335 335
317 316 316 315 313 314 317 317 317 318 317 318 319 312 315 321 322 323 319 320 330 337 342 344 344 347 347 345 342 339 337 338 342 343 343 343 342 343 342 341 341 341 340 339 339 339 338 339 339 340 340 340 341 339 339 339 338 339 339 339 339 339 338 338 338 337 337 335 335 337 336 336 336 336 335 335 335 335 337 338 337 335 335 335 335 335 334 333 333 333 334 334 334 335 334 334 334
317 314 314 315 312 313 316 317 318 318 317 318 317 313 315 319 322 324 321 320 325 331 339 345 345 346 344 342 339 336 336 335 338 343 343 342 342 342 342 342 341 341 341 340 340 339 338 338 339 340 340 341 341 340 340 339 339 339 339 339 339 339 339 338 338 336 336 335 335 336 336 336 336 336 335 335 334 334 336 337 336 335 335 335 334 333 334 333 333 332 334 335 334 335 334 335 334
318 314 311 313 312 312 315 317 319 319 318 317 316 317 320 322 323 322 321 320 321 323 332 341 344 343 342 340 337 336 335 335 337 341 343 342 342 342 342 342 342 341 341 341 341 339 339 339 339 339 340 341 341 341 340 339 339 339 339 339 339 339 339 338 338 336 335 335 335 336 336 336 336 335 335 335 335 334 335 336 335 333 333 334 333 333 333 332 333 332 333 335 335 335 335 334 335
318 317 313 313 312 312 313 315 320 320 319 318 317 319 322 324 324 322 319 321 321 320 324 335 341 340 340 338 337 336 336 336 337 340 343 342 342 342 341 342 342 342 342 341 341 340 340 340 339 340 340 340 341 341 340 339 338 338 337 338 339 339 339 338 338 337 335 334 336 336 336 336 335 334 334 335 335 335 335 336 335 332 332 335 334 333 333 333 333 333 333 335 335 335 334 334 335
317 317 314 313 313 313 313 314 318 320 319 319 318 318 319 321 322 321 319 319 321 323 321 327 335 337 337 337 337 337 336 337 335 338 343 342 341 342 341 342 342 342 341 341 341 341 341 340 339 340 339 340 340 340 339 339 338 337 337 338 339 339 339 338 338 337 335 334 336 336 336 335 333 333 333 334 336 336 336 336 336 335 334 336 335 333 333 333 334 334 333 334 335 335 334 334 335
315 315 313 313 311 312 314 315 318 319 318 319 318 318 319 319 320 320 321 320 320 324 322 323 330 334 336 338 339 338 337 338 333 335 343 343 341 342 341 341 342 342 342 341 341 341 341 340 339 339 339 340 340 340 339 339 338 337 337 337 338 339 339 339 338 337 336 335 336 336 336 334 333 333 333 334 336 337 336 336 338 337 336 337 336 333 333 333 333 333 332 333 334 334 334 334 335
315 314 313 312 311 312 315 317 319 319 318 318 319 318 318 318 319 319 321 322 320 321 323 323 328 334 336 339 340 339 340 338 333 335 343 343 341 341 340 341 342 342 342 341 341 340 340 340 339 339 340 340 339 339 339 338 337 336 336 336 338 339 339 339 339 338 338 337 337 337 335 335 334 333 334 335 335 336 336 337 337 337 337 338 336 334 334 334 332 332 332 333 334 333 333 333 334
315 314 313 312 312 313 316 318 319 319 317 317 319 317 317 318 320 321 320 321 321 323 324 324 329 333 336 339 340 340 339 337 337 340 343 342 341 341 340 340 342 341 341 341 341 340 340 340 340 340 339 340 339 339 338 337 336 336 336 336 337 339 339 339 339 339 338 338 338 337 335 335 335 335 335 336 335 335 336 336 337 336 336 338 337 336 336 335 333 333 332 332 334 333 333 333 333
315 314 313 312 313 315 317 320 320 319 317 318 320 317 318 320 321 321 321 320 321 324 323 323 329 333 336 338 339 339 338 338 342 345 344 341 341 341 340 340 341 341 341 340 341 340 340 340 340 339 339 339 339 339 337 336 336 336 336 336 337 338 339 339 339 338 338 338 338 338 336 335 336 336 337 337 335 334 335 336 336 336 335 336 337 337 337 336 335 334 334 333 334 334 334 334 334
316 315 313 312 315 315 315 319 320 320 317 318 320 318 319 323 323 322 321 321 320 321 321 322 326 331 335 337 337 336 336 338 343 346 345 342 340 340 339 339 340 340 340 339 339 339 339 340 340 339 339 339 338 338 337 336 337 336 336 336 337 338 338 339 338 339 339 338 338 338 336 336 336 336 336 336 336 334 334 335 337 337 336 336 338 338 338 338 336 335 335 336 335 334 334 335 336
317 317 315 314 316 316 316 319 321 322 323 322 320 319 324 329 326 325 322 320 320 322 325 325 325 327 332 335 335 334 334 338 343 346 345 343 341 340 339 339 340 340 340 339 339 339 338 339 339 339 338 338 338 337 337 337 337 337 337 337 337 337 338 338 339 339 339 338 337 336 336 336 336 336 335 336 336 335 335 337 338 338 337 337 338 338 338 339 337 336 336 337 336 334 334 335 336
315 318 319 317 318 320 320 319 319 319 320 324 319 316 326 336 327 322 321 323 326 327 329 331 329 328 329 332 332 332 333 337 343 345 345 344 341 340 340 339 339 340 340 339 339 339 338 338 338 338 338 337 337 337 336 337 337 337 337 337 337 337 337 338 339 338 338 338 337 336 336 336 336 336 336 336 336 336 336 338 339 338 337 337 337 337 338 339 339 337 336 337 337 335 334 334 335
315 322 324 320 320 321 321 319 318 316 318 324 320 315 321 329 324 321 324 329 332 331 332 332 331 332 332 331 329 331 333 337 343 344 343 344 342 340 341 340 339 340 340 340 339 339 338 339 338 338 338 337 337 337 336 337 337 337 337 337 337 337 337 337 337 338 338 337 337 336 336 336 336 335 335 335 336 336 337 338 339 338 337 337 337 337 338 340 339 338 337 338 338 337 336 335 335
318 326 324 322 322 320 322 319 316 319 320 323 325 316 314 319 322 324 328 334 336 334 335 333 331 333 337 336 330 330 334 337 342 343 343 343 342 341 340 340 339 339 340 340 340 339 339 339 339 338 338 337 337 337 336 337 337 337 337 337 337 336 337 337 337 337 337 337 337 336 336 336 335 335 335 335 336 336 337 338 338 338 338 337 338 338 339 340 340 339 339 339 338 338 338 337 336
324 326 322 323 322 321 323 319 318 322 318 321 329 319 314 322 330 331 336 338 335 335 335 333 332 333 336 338 334 333 336 340 342 343 344 343 342 340 340 340 340 339 339 340 341 341 340 339 339 339 338 337 337 337 337 337 337 337 337 337 337 337 336 336 337 337 337 337 337 336 335 335 335 335 335 335 335 335 336 338 338 338 338 338 338 339 339 340 340 339 338 338 338 338 338 338 337
326 324 323 323 321 323 323 319 319 318 317 322 327 316 315 327 334 332 337 336 332 335 334 332 332 332 334 338 338 338 339 341 343 342 343 342 341 340 340 340 340 340 340 339 340 341 340 340 339 339 338 337 337 337 337 337 337 337 337 337 337 337 336 336 336 337 337 337 336 336 335 335 335 335 336 335 335 335 336 337 338 338 338 338 338 339 339 340 339 338 338 338 338 338 337 337 337
322 323 324 324 326 330 333 334 324 315 323 331 326 319 318 326 333 333 334 335 334 336 334 333 334 332 334 336 337 340 342 343 344 344 345 343 340 340 340 341 340 340 340 339 340 340 341 341 339 339 339 338 338 338 337 337 337 337 337 337 337 336 336 336 336 336 336 336 336 336 335 335 336 336 336 336 336 336 335 336 337 338 337 337 338 338 338 339 339 338 337 337 337 337 337 337 337
321 327 326 322 327 330 337 344 329 318 329 333 325 324 321 323 334 337 334 339 340 336 334 335 335 334 334 333 335 338 342 347 349 351 352 348 344 342 340 340 340 340 340 340 339 340 340 341 341 340 340 339 339 338 338 337 337 337 337 336 336 336 336 336 335 336 336 336 335 335 335 336 336 336 337 337 336 335 335 336 336 336 336 336 337 337 338 338 338 338 337 337 337 337 337 337 336
323 327 325 321 325 326 329 335 328 324 330 329 325 325 322 329 341 339 336 340 339 335 333 333 334 334 335 333 332 334 337 342 348 353 355 351 348 345 341 339 340 340 340 340 339 339 339 340 341 341 340 340 340 339 338 338 337 337 337 336 336 336 336 336 335 335 335 335 335 335 335 336 336 336 337 337 336 335 334 334 334 334 334 335 336 336 336 338 338 338 337 337 337 337 337 336 336
324 323 321 320 322 323 327 332 328 326 328 329 329 323 323 333 339 337 339 338 336 334 332 332 333 333 334 332 330 330 332 335 340 345 350 350 348 344 340 339 340 340 340 340 340 340 339 339 341 341 341 341 341 340 339 338 338 337 337 337 336 336 336 336 335 335 334 334 334 335 335 335 335 336 337 337 336 335 333 333 333 334 334 335 335 335 336 338 338 338 338 338 337 337 337 337 337
326 325 323 322 321 320 326 332 328 324 327 328 325 324 329 332 332 336 339 336 335 333 331 332 332 332 332 332 331 331 333 333 334 339 346 352 349 343 341 340 340 341 341 340 340 338 336 336 338 340 341 340 341 340 340 339 338 338 337 337 337 336 336 336 335 335 334 334 335 335 335 336 336 337 337 337 336 335 333 332 333 335 336 336 336 336 337 338 338 338 338 338 337 337 337 337 337
333 330 322 321 326 324 324 332 330 324 325 327 323 327 335 331 331 338 337 336 336 333 333 333 332 333 332 333 335 334 335 335 334 337 344 350 347 341 340 341 341 341 340 339 338 335 335 335 337 339 340 341 341 340 340 339 339 338 338 337 337 336 336 336 335 335 334 334 334 334 335 335 336 337 337 336 336 336 335 335 335 336 337 336 336 337 338 338 338 338 338 338 337 337 337 337 337
335 327 321 326 332 327 322 328 332 323 322 330 328 323 327 330 334 338 336 336 336 332 334 335 334 335 334 335 337 336 335 335 335 335 339 345 346 341 340 341 340 337 334 335 337 336 337 338 338 339 339 340 341 341 340 340 339 339 339 338 337 337 336 336 335 335 335 335 335 335 334 335 336 337 336 336 336 337 337 336 336 336 337 337 337 337 337 336 337 337 338 338 337 337 337 338 337
326 321 324 330 329 326 323 325 328 324 325 333 330 320 322 330 336 339 336 335 336 334 334 335 335 334 334 336 336 336 337 336 336 336 336 339 340 338 339 340 337 333 332 336 338 338 338 338 338 338 339 339 340 341 341 340 340 340 339 339 338 337 337 336 336 335 335 335 335 335 335 336 336 336 336 336 336 337 336 336 336 336 336 337 337 336 336 336 336 337 338 337 337 337 337 338 337
318 321 326 328 326 327 329 329 330 329 327 331 332 326 323 328 333 336 336 336 337 335 334 333 333 333 333 335 335 336 339 339 338 339 338 336 331 329 333 337 335 333 334 336 338 338 337 337 338 338 338 338 339 341 341 340 340 340 340 340 339 338 337 336 336 335 335 335 334 335 335 336 336 336 336 335 335 336 336 336 336 335 334 335 336 337 336 337 337 338 338 338 338 337 337 337 337
316 320 323 327 328 327 328 329 330 331 328 328 331 327 326 333 337 335 335 337 336 334 334 332 331 331 332 333 334 336 339 340 339 337 336 335 327 323 329 336 337 336 335 335 337 338 337 337 338 338 337 338 338 340 341 341 341 340 340 340 339 338 337 336 336 336 336 335 334 334 335 335 336 336 334 334 334 334 334 335 336 335 333 333 335 337 337 338 338 338 338 338 338 337 337 337 337
317 320 322 323 325 324 323 322 322 323 326 330 329 326 333 342 339 334 333 334 333 331 332 332 331 332 332 333 336 336 337 340 338 333 331 331 327 322 326 335 338 336 335 335 334 335 336 336 337 337 337 338 338 339 340 341 341 341 340 340 339 338 338 337 337 336 336 336 335 335 335 335 335 335 335 335 333 333 334 336 338 337 334 332 334 336 336 336 337 338 338 338 338 337 337 338 338
318 320 321 321 320 320 319 323 327 322 322 331 329 325 334 336 332 336 335 330 331 329 329 331 331 331 334 336 338 338 338 339 337 331 329 330 327 321 322 330 335 336 335 335 334 334 334 335 335 336 336 337 337 338 339 340 341 341 340 340 340 339 338 338 337 337 337 336 336 335 335 335 336 336 335 334 333 335 337 338 338 338 336 335 335 335 336 336 337 338 339 338 338 337 337 338 337
Wind_Speed
13 14 13 13 13 10 6 2 2 2 2 1 3 1 4 4 2 2 1 4 2 2 4 4 4 2 4 4 6 5 2 3 3 3 3 4 5 12 17 14 14 17 19 20 20 19 18 16 16 15 14 13 14 13 13 12 12 12 12 12 12 12 12 12 11 12 11 11 11 12 12 12 13 14 14 14 15 15 15 16 16 17 16 15 14 13 12 11 10 10 9 9 10 10 11 13 15
14 14 12 12 10 4 2 2 2 3 2 2 3 2 4 1 2 3 4 5 3 4 2 2 2 4 3 4 5 3 1 2 1 3 3 3 5 12 13 15 19 19 21 21 20 20 18 17 16 15 15 14 14 14 14 14 13 13 12 11 11 11 11 11 11 11 11 11 11 12 11 11 13 13 14 14 15 14 14 16 16 16 15 15 14 13 11 10 8 8 8 8 9 9 9 11 13
14 13 12 11 5 1 0 2 1 1 1 3 4 3 3 2 2 6 6 6 7 6 1 1 4 4 2 2 0 3 1 5 1 2 1 4 6 12 17 19 21 20 21 20 19 20 18 17 16 16 16 14 15 15 15 14 14 14 13 12 11 10 10 10 10 11 10 11 11 11 10 12 13 13 14 15 15 14 14 15 16 16 15 15 14 12 11 9 8 7 7 7 8 8 8 10 13
13 12 11 7 4 2 2 1 2 3 2 3 3 4 3 3 6 6 6 7 9 7 3 2 1 3 4 3 1 3 1 3 4 4 1 8 10 13 22 21 20 19 20 20 19 19 18 17 16 16 15 14 15 15 15 15 15 15 14 12 11 11 10 10 10 10 10 10 10 10 12 14 13 13 15 16 15 14 14 14 15 15 14 14 13 12 10 8 7 7 7 7 8 8 10 12 13
12 11 9 2 3 1 1 1 2 3 4 3 1 4 4 5 6 6 6 6 9 8 6 5 1 3 2 2 2 1 3 1 5 9 4 9 12 16 25 22 19 20 20 20 19 18 18 17 15 15 14 14 14 14 15 15 14 15 14 12 12 11 10 9 9 10 10 10 11 12 14 14 13 13 15 15 15 14 14 14 14 14 14 14 12 11 10 7 6 7 8 8 9 10 11 13 13
9 9 5 2 2 1 1 2 2 3 5 4 3 4 5 6 7 8 5 3 6 7 7 7 4 1 2 2 1 2 5 1 2 10 8 7 13 20 24 21 21 20 18 19 17 17 17 16 15 14 14 13 13 14 14 14 14 14 14 13 12 12 11 9 9 10 10 11 11 12 13 13 12 14 16 15 14 14 13 13 13 13 13 13 12 11 10 7 5 7 9 8 10 11 12 12 12
6 6 2 1 2 0 2 4 4 4 5 6 5 5 7 7 7 8 2 1 2 5 6 7 6 5 1 0 1 2 5 6 3 7 8 8 16 23 24 22 22 20 18 17 15 14 15 15 14 14 13 13 13 14 13 14 14 14 14 13 12 11 11 10 10 10 10 11 11 11 12 12 12 14 16 15 14 14 13 13 12 13 12 12 12 11 10 7 5 7 9 9 10 11 11 11 11
2 1 1 3 2 2 1 5 5 4 5 5 5 6 8 9 8 6 3 2 2 4 5 6 7 5 2 2 2 5 6 13 9 6 7 9 20 25 23 24 23 21 19 16 13 12 13 13 13 13 13 13 13 13 13 14 14 14 14 13 12 11 11 11 11 11 11 11 10 11 12 12 13 15 16 14 14 13 13 12 12 12 12 12 11 10 9 7 6 7 8 8 10 10 10 10 10
3 2 1 1 0 3 3 5 5 5 6 6 7 6 7 9 9 6 6 5 3 3 5 8 8 5 2 4 2 6 6 17 13 7 6 11 22 24 21 23 23 22 19 16 13 11 12 12 12 13 12 13 13 13 14 14 14 14 13 13 13 12 12 11 12 12 12 11 10 11 13 12 13 15 16 14 14 13 12 12 11 11 11 12 10 10 9 7 7 7 7 7 9 10 10 9 8
2 1 1 1 1 3 5 4 4 5 7 7 9 9 7 9 9 8 7 8 7 3 5 6 6 5 6 5 2 4 7 17 14 7 8 15 23 22 20 22 21 21 18 16 13 11 13 13 13 14 14 15 15 15 14 14 14 14 14 14 13 14 13 12 13 13 13 13 11 13 14 13 14 15 15 14 13 12 12 11 11 10 11 11 10 9 8 7 8 7 7 7 7 9 9 8 7
2 2 2 1 1 4 5 5 5 6 7 5 7 8 7 9 9 7 6 5 6 4 5 2 4 4 7 3 2 6 10 15 13 8 12 19 22 21 21 21 20 19 18 18 18 18 20 20 19 18 17 17 17 16 15 15 15 15 15 15 15 14 13 13 13 13 15 14 13 14 15 14 14 15 15 14 13 13 12 11 11 10 10 11 11 8 7 7 8 7 7 7 7 8 9 7 6
1 2 1 2 3 4 5 5 6 6 5 3 6 7 7 10 9 7 6 5 5 6 7 3 5 6 6 2 3 5 11 17 13 8 15 20 21 22 22 22 21 20 19 22 25 25 25 25 22 19 18 17 17 16 16 16 17 17 17 17 16 15 13 13 14 14 16 15 15 16 15 15 15 15 15 14 14 13 12 11 11 10 10 11 11 8 7 7 7 7 7 6 7 7 7 6 5
2 3 2 3 4 3 4 5 6 2 3 4 6 5 9 11 10 8 8 8 7 7 8 6 8 6 5 2 1 2 10 19 12 10 16 19 21 22 21 23 22 22 24 26 26 23 23 23 21 19 19 17 18 18 17 18 18 18 17 17 16 15 14 13 14 16 16 15 15 16 15 16 15 15 14 14 14 13 12 11 11 10 11 11 10 10 10 8 7 6 6 6 7 6 6 4 4
3 2 3 3 2 2 4 3 5 1 1 6 4 3 9 9 11 10 8 9 9 9 6 8 11 6 3 2 1 2 11 21 13 12 17 18 20 22 20 23 24 26 26 24 23 22 21 22 21 21 20 20 20 20 19 19 18 18 17 17 16 15 14 13 15 17 17 15 15 16 15 16 16 15 14 14 13 12 11 10 10 10 11 11 11 12 12 10 8 7 6 6 6 6 5 4 3
5 1 2 3 4 2 2 2 4 1 2 5 3 2 6 7 13 10 9 12 10 7 4 6 9 4 5 6 4 9 17 23 16 14 19 17 18 21 21 24 27 27 23 21 22 22 22 23 23 22 22 22 21 21 19 18 18 18 18 17 16 16 15 15 17 18 17 16 16 16 16 16 16 15 14 13 13 12 11 9 9 9 9 11 11 11 12 12 9 7 6 6 6 6 5 3 3
4 2 1 3 4 3 3 3 2 1 3 5 3 2 5 3 11 9 9 10 5 4 4 4 4 1 8 8 7 18 24 23 19 17 20 19 19 21 22 26 28 25 21 21 23 23 23 23 24 23 23 23 22 21 19 18 17 17 17 17 17 17 16 17 19 19 18 16 16 16 15 15 15 14 13 13 12 12 11 9 8 8 8 10 11 10 11 13 11 9 7 6 5 5 4 3 3
3 3 2 4 5 4 3 3 1 1 4 5 5 3 5 0 8 6 2 4 4 5 4 1 2 3 5 4 8 23 26 24 22 21 21 20 20 20 23 28 26 22 21 22 23 23 23 23 24 24 24 23 22 21 20 19 18 17 17 16 16 17 17 18 19 19 18 17 16 16 15 16 16 15 14 13 12 12 11 9 7 7 7 8 11 12 12 13 12 10 8 7 6 5 4 3 3
3 3 3 5 4 4 5 4 4 3 2 5 4 2 4 1 6 3 5 3 3 6 5 3 4 7 4 4 14 26 27 27 25 22 20 19 20 20 23 25 21 20 22 21 22 24 22 22 24 24 24 23 22 21 20 19 18 17 17 17 17 17 17 18 19 18 18 18 17 17 16 17 17 16 15 13 12 12 11 9 7 6 7 7 10 13 12 14 13 11 10 8 6 5 5 3 3
4 4 3 5 5 5 6 5 6 3 1 4 4 2 2 2 4 1 2 3 5 7 3 3 5 6 6 9 20 26 28 28 25 23 19 17 20 21 21 19 18 21 23 22 24 25 24 23 23 24 24 23 21 20 20 19 18 18 18 18 17 17 18 19 19 19 19 19 19 18 17 17 17 17 15 14 12 12 11 10 8 6 6 6 8 11 11 13 13 12 11 9 7 6 6 4 3
3 4 2 6 6 6 7 7 8 6 3 2 4 3 4 6 2 1 3 6 6 7 4 2 2 2 5 8 16 22 24 24 23 22 20 18 21 23 20 18 20 24 26 25 25 25 25 24 23 22 22 24 22 20 20 19 19 19 18 18 18 18 19 19 20 20 19 20 19 18 16 16 16 16 15 13 12 12 11 10 9 7 7 6 7 9 11 12 13 13 11 9 9 7 7 6 5
2 4 5 7 5 5 8 8 7 4 1 1 4 4 6 7 2 2 4 6 4 6 9 10 10 9 9 8 12 17 19 19 20 20 19 20 23 23 17 17 22 26 27 26 24 26 27 26 24 22 22 24 23 21 21 20 20 19 19 19 18 19 20 20 21 21 20 20 18 17 16 16 16 16 15 14 13 13 12 12 10 9 8 7 8 9 11 13 13 13 11 10 9 8 8 8 7
3 4 7 8 4 5 9 6 5 5 1 0 5 5 4 6 3 3 4 5 6 8 11 11 13 14 14 13 12 13 14 15 16 17 18 20 24 22 15 15 20 23 25 25 24 26 28 27 25 23 24 25 23 21 21 20 20 20 20 19 18 19 20 21 22 21 21 19 18 17 16 16 16 16 15 15 15 15 14 13 11 9 9 8 8 10 11 13 13 12 11 9 9 9 9 9 9
6 6 6 9 6 7 8 4 4 5 3 3 3 4 4 3 5 4 5 6 7 10 11 11 14 16 17 15 13 13 13 14 14 17 21 22 24 22 18 18 19 22 24 25 25 25 27 28 27 26 25 25 24 22 21 21 21 21 20 19 19 19 20 21 22 21 20 18 16 17 17 16 16 16 17 17 16 16 15 13 11 10 9 9 9 9 10 11 11 11 11 11 10 11 10 10 11
7 5 6 8 8 8 7 5 6 6 5 6 4 2 4 5 6 5 6 8 6 9 12 14 14 13 14 14 14 14 15 15 17 22 26 27 29 23 21 24 22 22 23 24 25 24 26 29 28 28 26 25 24 23 22 23 23 22 21 20 20 20 20 21 22 21 19 17 16 16 17 16 17 17 18 18 17 17 16 14 11 10 10 10 9 8 9 9 9 10 11 11 11 11 12 12 13
1 4 6 6 8 8 9 7 7 7 6 7 5 5 8 10 5 3 9 9 6 11 12 13 12 12 12 14 15 15 14 15 17 22 25 28 29 21 19 25 24 22 22 23 25 24 25 27 29 29 27 25 25 23 23 23 24 23 21 20 20 21 21 22 23 22 19 18 17 17 16 16 17 17 17 17 17 17 16 14 11 10 11 11 10 9 8 8 7 8 9 10 11 11 11 12 12
3 5 6 7 9 9 9 8 7 7 5 4 6 9 12 10 3 3 11 9 8 11 12 13 13 14 13 14 15 15 15 16 16 20 24 27 26 19 18 23 24 25 25 24 25 25 25 27 28 29 28 26 26 25 24 24 24 23 22 21 21 22 22 23 23 23 21 19 18 17 16 16 16 16 16 16 17 17 16 15 12 10 11 12 12 10 9 8 7 6 8 9 10 11 10 11 13
6 7 9 10 11 9 7 8 9 8 6 5 6 10 12 7 2 4 11 6 11 12 13 14 14 15 14 13 13 13 14 16 19 21 21 21 21 20 20 22 24 25 25 25 26 25 25 27 28 28 28 27 27 26 25 25 24 23 24 23 22 23 24 24 23 23 22 20 19 18 17 16 15 15 15 16 17 17 17 16 13 11 12 12 13 11 9 9 8 7 8 9 10 10 9 12 14
7 7 11 13 12 11 9 9 10 6 6 8 7 8 12 7 3 8 10 7 15 14 14 15 15 14 14 14 12 10 11 15 21 20 16 18 20 22 23 26 26 24 25 25 25 26 26 28 28 28 28 27 27 27 26 26 25 25 25 25 24 25 25 25 24 23 24 23 21 19 18 17 15 15 15 16 17 17 17 16 14 12 12 12 12 11 10 10 10 8 7 8 8 8 8 7 5
7 6 9 13 11 12 14 11 10 6 7 10 3 4 11 8 9 13 10 9 16 15 14 15 14 13 12 12 10 9 9 12 17 17 19 23 24 25 27 29 28 26 25 23 24 27 27 28 28 28 28 27 27 28 27 27 27 27 27 26 26 27 26 26 26 24 24 25 24 21 19 17 16 16 15 16 17 17 16 15 14 14 14 14 13 13 12 11 10 9 6 5 5 5 6 2 3
8 7 5 9 8 10 14 8 9 10 12 10 5 2 10 10 13 15 6 10 15 14 15 15 12 10 9 10 9 9 9 10 14 18 23 26 25 27 28 30 29 26 25 24 25 28 28 29 29 29 29 29 29 29 28 28 28 28 28 27 28 28 28 27 26 25 24 26 26 24 21 19 18 17 16 16 16 16 14 13 13 14 15 15 15 15 16 15 13 11 8 6 5 5 5 3 1
6 7 4 4 3 8 15 9 6 10 12 10 9 5 10 10 14 14 5 12 17 15 15 13 10 9 8 9 9 9 9 10 16 21 26 27 27 28 29 30 29 26 25 25 26 27 29 30 30 31 30 30 30 29 29 28 28 28 28 28 28 28 27 25 24 24 25 26 27 26 24 22 20 18 16 16 17 16 16 13 11 12 13 13 12 13 16 16 14 12 9 7 6 5 4 4 4
2 3 5 3 2 7 17 13 5 8 6 9 11 5 8 9 13 13 5 11 16 16 14 12 11 12 10 9 9 9 9 10 14 19 24 27 28 29 29 30 29 28 27 26 26 27 29 30 31 32 31 31 30 29 29 28 28 28 29 28 26 26 25 24 24 23 24 26 27 26 25 24 22 19 17 17 18 19 18 15 13 14 14 13 10 10 14 16 13 11 9 6 7 7 5 5 4
2 2 4 5 5 6 11 11 6 4 3 6 9 5 4 6 11 12 6 9 14 14 14 14 14 13 12 10 9 9 8 8 9 14 22 26 28 30 30 31 30 29 28 26 27 28 29 29 30 32 32 32 30 29 28 27 28 28 28 27 25 25 24 24 23 22 23 26 27 26 26 25 23 20 18 17 19 21 20 18 15 15 15 12 10 9 13 16 14 12 10 8 7 7 5 5 5
3 2 4 6 6 5 6 8 8 5 5 2 9 6 6 8 9 11 6 8 13 12 12 15 15 13 12 10 10 9 9 10 9 13 23 27 28 30 31 31 31 30 29 27 27 27 28 29 29 31 32 32 30 30 29 28 28 27 26 26 26 25 24 23 22 21 23 26 27 27 27 26 24 21 19 18 19 21 21 19 17 16 15 10 8 8 11 14 14 13 12 10 8 6 4 4 3
4 4 3 6 6 6 8 8 7 5 5 3 6 7 11 13 11 10 8 7 11 11 10 13 14 13 12 10 10 10 10 12 12 16 25 28 28 30 30 31 31 30 30 29 28 27 27 29 29 29 30 30 29 29 28 27 26 26 25 26 26 25 24 23 22 21 22 25 26 27 27 26 25 22 20 18 18 20 19 19 18 16 15 11 9 10 11 13 14 12 11 11 10 8 5 4 3
8 9 6 7 8 8 10 10 9 5 4 5 5 7 10 12 12 10 10 6 9 11 9 9 10 11 11 11 11 11 12 13 13 18 26 28 29 31 30 32 32 31 31 30 30 30 30 29 29 29 29 29 28 27 26 26 24 24 24 25 25 25 25 23 23 22 22 25 26 26 26 25 25 22 20 19 19 20 19 19 17 15 15 12 10 12 13 13 13 13 11 10 12 12 9 6 3
11 10 8 10 9 10 12 10 11 5 2 6 7 6 7 9 10 10 9 7 6 9 8 8 10 11 11 13 13 13 14 13 11 17 25 26 27 29 29 30 31 30 31 32 31 32 31 31 30 29 30 30 29 27 26 25 25 24 24 26 26 26 26 24 23 23 23 24 26 26 25 23 23 22 21 20 20 19 19 18 16 14 14 13 12 12 11 11 12 13 11 10 13 14 12 9 6
11 9 8 10 8 11 13 10 11 6 3 6 8 6 9 9 8 8 7 7 8 10 8 9 13 14 13 15 15 14 13 9 7 12 18 22 23 26 28 29 32 31 32 34 33 33 32 31 31 31 31 30 30 30 28 26 27 27 25 27 27 26 26 25 23 25 25 25 26 27 25 23 22 22 22 21 20 19 18 17 15 14 15 14 14 13 10 10 12 12 11 11 13 15 13 10 9
10 8 7 8 7 9 10 9 11 5 3 6 10 8 9 9 8 8 8 7 8 9 8 9 14 15 13 13 14 13 12 7 8 10 13 18 21 25 27 28 32 33 33 34 34 33 32 32 32 32 32 32 31 30 29 28 28 28 26 26 27 25 24 24 23 24 25 25 26 27 26 23 22 22 22 22 20 19 18 16 14 14 15 15 15 14 12 10 11 12 11 11 13 14 13 12 11
8 8 6 8 10 7 6 7 9 5 0 6 8 6 6 6 7 8 8 7 6 9 9 6 12 15 15 16 15 14 14 11 10 10 11 14 18 22 24 25 29 29 30 32 32 33 33 33 33 33 33 32 31 30 30 29 27 25 24 25 25 24 23 24 23 23 23 24 25 26 26 24 22 22 23 22 21 18 18 17 14 13 15 14 13 14 14 13 13 13 11 11 14 15 12 11 11
9 10 8 10 11 9 7 7 6 6 4 4 3 5 5 5 5 6 8 6 5 9 10 6 3 11 14 16 16 15 15 13 13 12 12 13 16 20 23 25 26 27 29 32 34 35 35 35 35 34 33 33 32 30 29 29 25 22 21 20 21 21 20 22 22 21 21 22 24 25 25 24 22 22 23 23 21 19 17 15 12 13 14 13 13 14 14 15 15 15 14 12 14 17 14 12 12
9 10 13 15 12 10 9 7 4 5 6 4 2 4 5 5 5 6 6 8 9 10 11 11 6 2 8 11 11 11 13 13 14 15 15 14 14 18 21 23 25 27 30 33 34 35 35 35 35 33 33 32 32 30 29 28 26 24 22 20 20 20 19 21 23 23 23 23 23 24 24 23 22 21 22 23 21 19 17 14 13 15 15 15 16 16 16 17 18 18 17 16 15 17 16 14 13
6 8 11 13 9 6 7 7 3 1 5 5 0 1 4 6 6 6 5 9 9 10 10 10 8 4 3 8 9 9 10 11 12 13 14 13 13 15 18 23 26 27 28 30 31 32 32 33 33 33 32 32 31 30 29 28 26 26 25 23 23 22 20 22 23 24 24 24 23 23 23 22 21 20 21 22 20 19 17 16 16 16 16 16 16 17 17 18 19 19 19 18 17 17 16 15 14
6 6 5 5 5 6 6 6 4 3 4 5 4 1 2 4 4 5 4 8 9 10 11 11 10 8 5 3 10 13 13 12 12 11 12 12 14 16 19 24 27 26 26 27 28 29 30 31 32 32 31 31 31 31 30 29 28 27 27 25 24 23 23 22 23 24 23 23 22 23 23 22 21 20 21 21 20 19 18 18 18 17 17 17 17 17 18 18 19 19 19 18 18 17 17 17 16
6 6 4 2 3 5 4 3 4 3 2 5 6 2 1 4 5 5 5 7 7 8 8 10 10 10 8 3 6 11 13 13 12 12 13 13 15 19 21 23 25 25 26 27 28 29 29 29 30 30 29 28 30 31 31 31 29 28 27 26 24 23 23 21 22 23 22 21 21 22 22 22 21 20 20 20 20 18 17 18 19 18 18 18 17 17 17 17 18 19 19 19 18 18 18 16 15
7 5 3 1 1 3 1 1 3 2 2 4 6 2 0 4 5 4 5 4 3 3 5 7 8 8 8 6 6 6 7 8 9 10 11 12 13 15 17 19 21 24 27 27 27 27 27 27 28 28 28 26 28 30 31 31 30 28 28 27 25 23 21 19 19 21 21 21 21 21 21 21 20 20 18 19 19 18 18 18 19 19 19 18 17 17 16 17 19 19 19 19 19 19 19 17 15
8 4 3 4 5 3 2 1 2 2 3 5 6 0 4 1 4 3 1 2 3 2 2 3 6 9 9 7 7 7 6 6 6 5 5 5 8 10 13 15 17 20 24 26 26 25 25 26 26 26 26 25 26 28 29 30 30 29 28 28 26 24 22 20 20 21 21 21 21 21 20 20 20 19 17 17 17 17 18 20 19 18 17 18 18 18 17 18 19 19 18 19 18 18 18 16 15
3 0 2 3 5 4 4 4 4 1 5 5 4 1 4 2 4 4 4 3 4 3 3 6 6 7 8 8 8 8 6 5 5 5 5 5 7 9 12 14 15 18 22 25 27 26 25 25 25 24 23 23 24 26 28 29 29 29 28 28 27 25 24 23 23 23 23 23 22 21 20 20 19 18 17 17 16 16 18 20 18 16 16 18 19 19 18 18 19 20 19 19 18 18 17 16 15
2 1 3 3 4 4 3 4 2 3 6 5 3 0 1 3 5 5 6 5 6 4 3 5 7 8 7 7 7 7 7 6 5 5 6 6 6 7 10 14 18 21 24 26 27 26 24 23 23 23 22 22 23 24 26 27 28 28 27 27 27 26 25 25 25 25 24 24 23 22 21 21 20 18 18 18 18 17 18 19 17 16 17 18 18 19 18 18 20 20 19 18 17 17 17 16 15
3 1 1 1 0 1 3 4 3 3 5 6 3 2 3 3 4 6 7 5 7 8 7 6 6 9 8 6 6 7 8 7 5 4 4 6 6 6 10 15 18 20 23 25 25 24 20 16 16 18 19 21 22 24 25 26 27 27 27 27 27 26 26 26 26 26 25 25 24 23 23 22 21 21 20 19 18 17 17 18 18 17 17 17 17 18 18 19 20 20 19 18 17 16 15 15 15
4 2 3 2 2 2 4 3 3 5 5 5 3 2 3 2 3 4 5 3 3 6 7 8 7 7 8 7 7 7 7 6 5 5 4 5 7 8 12 14 17 20 21 17 12 10 8 6 5 9 13 19 22 24 26 27 27 26 27 27 27 26 26 26 26 26 26 26 25 25 24 22 22 22 21 20 19 18 18 18 19 19 18 18 18 18 20 21 21 20 19 18 16 15 14 14 14
4 1 3 1 4 4 3 3 5 4 3 3 2 2 4 3 2 2 6 4 3 3 5 8 7 6 8 8 5 5 6 6 6 6 4 4 7 9 10 12 16 14 7 11 15 15 11 6 11 15 17 21 25 26 27 28 28 26 26 27 27 27 26 26 26 26 26 27 26 26 25 23 23 23 22 21 20 20 20 21 22 21 20 21 21 21 22 23 22 21 20 19 17 15 14 14 14
3 3 3 5 4 4 0 4 3 1 2 4 2 2 2 1 2 3 5 4 4 4 5 9 8 6 7 7 5 5 5 5 5 5 5 3 4 7 10 13 10 9 21 21 16 14 16 19 22 25 25 25 28 30 30 29 28 27 27 27 27 27 26 26 26 27 27 27 27 26 25 24 23 23 22 22 22 22 23 24 24 24 22 22 24 25 24 22 21 21 20 19 17 15 15 15 15
1 2 5 4 1 3 3 2 4 3 3 5 2 4 4 1 1 2 1 4 5 5 5 7 7 6 7 6 5 5 5 5 5 5 6 4 0 3 9 10 9 19 16 11 11 14 20 24 27 31 30 27 27 29 29 29 28 27 27 27 27 28 28 27 27 27 27 27 27 26 26 25 25 24 24 24 24 24 25 25 26 26 24 22 23 24 23 22 21 21 20 18 16 15 15 16 15
2 2 4 1 1 3 1 1 2 3 4 5 4 4 5 4 5 6 7 8 8 7 6 7 7 7 7 6 6 5 5 5 5 5 6 6 5 5 2 5 14 15 14 15 14 18 22 24 28 31 31 28 24 24 27 27 27 27 27 27 27 27 28 28 28 27 26 26 27 27 27 26 26 25 25 25 25 26 26 26 26 28 27 24 22 22 22 22 22 21 19 18 17 16 17 17 16
5 2 3 2 2 3 2 2 2 3 4 4 4 4 4 5 6 11 12 11 10 9 7 6 7 7 7 6 6 6 5 5 5 6 7 7 8 14 17 17 18 16 17 15 14 19 22 24 26 28 28 26 24 23 26 29 29 28 27 27 27 28 28 29 29 28 27 27 27 27 27 27 26 26 26 26 26 26 26 26 25 26 26 26 24 22 21 22 22 21 20 19 18 18 18 18 17
5 5 5 4 2 1 2 2 2 3 3 3 3 4 5 5 5 10 14 12 11 10 9 8 7 6 6 6 6 6 6 6 6 7 8 7 9 16 23 21 19 14 13 12 10 14 20 24 25 24 24 25 27 26 25 28 30 30 29 28 29 29 29 29 29 30 29 28 28 27 28 27 26 26 26 26 26 25 24 24 23 23 24 25 26 25 24 24 23 22 21 20 19 19 19 19 18
3 3 3 3 3 1 2 4 2 1 3 4 4 5 6 6 3 1 4 4 3 3 2 4 4 6 6 6 7 6 5 5 5 7 7 7 9 14 21 22 19 15 10 8 7 9 15 19 21 21 20 22 26 27 25 25 26 28 29 28 29 30 31 30 30 30 31 30 29 29 28 27 27 27 27 27 26 26 24 23 23 23 23 24 26 26 25 25 25 24 22 22 21 20 20 20 19
Wind_Direction
294 294 290 297 314 331 334 85 72 310 120 194 243 232 259 230 163 207 194 127 128 235 207 211 202 223 248 206 140 139 158 157 166 146 186 238 199 177 187 188 167 167 170 169 172 170 173 172 169 164 156 158 157 153 147 142 140 137 138 138 139 138 136 138 138 136 133 129 127 128 126 122 125 127 127 129 128 128 127 126 126 123 123 123 120 118 115 115 113 112 112 110 111 110 119 129 134
298 291 290 310 324 339 298 92 84 297 41 294 258 193 241 291 91 209 207 157 182 225 212 234 302 307 230 163 145 126 11 322 183 155 220 231 174 181 187 179 168 170 172 170 174 172 174 172 169 165 159 160 159 156 152 148 146 142 143 142 143 142 140 142 142 141 136 134 132 132 131 130 131 131 133 132 131 130 129 129 129 127 127 128 124 122 118 117 114 111 111 111 111 109 114 123 130
293 289 304 329 342 91 204 46 138 238 71 259 269 245 238 59 178 217 212 175 181 202 186 18 333 313 172 147 40 79 317 304 299 149 268 190 180 185 176 167 167 172 172 171 176 175 174 172 170 168 165 162 158 158 155 152 150 147 147 146 146 146 146 147 146 143 139 138 134 135 139 136 134 137 139 136 135 132 130 131 131 130 132 132 128 125 124 122 116 109 108 110 111 112 117 121 126
290 297 318 356 21 13 66 82 178 150 201 232 270 263 213 160 204 219 222 194 178 179 162 124 327 251 177 180 135 79 202 283 252 197 171 197 198 182 168 161 166 174 175 174 176 176 175 172 170 170 167 163 159 159 158 155 153 150 149 150 151 151 150 149 149 146 143 142 135 136 140 136 137 142 141 138 137 134 133 134 133 133 134 135 132 129 128 126 116 105 101 107 112 115 124 128 129
288 305 311 45 77 313 102 218 160 140 219 199 193 258 210 176 195 217 227 209 186 176 160 142 198 242 168 143 139 116 188 282 258 224 217 199 193 171 163 157 166 178 179 176 176 176 174 172 172 171 168 164 160 159 159 157 155 152 151 154 155 153 152 153 152 150 148 144 135 135 137 134 138 143 141 139 137 136 137 136 135 135 135 138 138 135 133 128 116 106 100 108 119 120 126 132 134
298 329 323 138 138 223 148 261 235 206 231 170 165 250 207 174 187 209 221 226 206 183 161 163 184 172 75 48 49 172 193 182 249 232 230 185 173 165 160 156 168 179 177 175 176 175 173 172 172 171 168 164 161 160 159 158 158 154 154 158 159 156 155 157 155 156 153 145 140 138 138 136 138 143 144 142 139 140 141 139 140 138 137 139 138 138 139 134 124 112 104 114 127 127 128 133 134
327 353 20 78 329 328 149 241 235 239 239 178 182 226 195 171 189 208 215 318 230 187 175 188 164 99 120 129 76 255 246 220 188 230 223 164 163 163 160 159 168 172 167 171 175 175 172 169 170 171 168 164 162 163 162 160 160 156 156 160 160 160 160 160 156 159 156 148 146 144 142 139 140 145 147 145 144 146 145 144 143 141 139 138 138 139 141 144 141 118 109 122 136 135 133 134 133
346 14 65 61 350 325 223 252 249 232 235 204 201 212 190 175 184 200 190 188 220 202 207 197 152 120 246 99 114 270 246 209 214 246 215 158 159 160 161 162 164 161 160 169 171 173 170 168 170 170 169 167 165 164 165 164 163 159 160 163 164 165 165 164 159 161 160 153 152 151 148 145 147 150 150 149 149 150 149 148 147 146 143 141 142 142 145 152 147 125 117 130 145 146 141 138 136
144 123 25 76 210 284 263 261 262 243 245 233 229 219 191 182 182 189 186 203 219 230 231 188 164 161 187 89 123 281 235 207 225 246 200 158 155 155 157 162 161 156 158 163 161 169 170 169 172 170 172 170 169 168 167 167 166 162 164 167 168 170 171 171 165 164 164 160 158 156 152 150 152 152 154 154 155 155 153 152 151 152 150 148 147 148 154 158 147 133 129 134 148 155 149 145 143
125 150 123 162 191 276 277 261 251 262 255 227 229 217 184 187 186 193 190 211 212 228 259 170 144 158 143 118 151 277 231 210 223 222 172 155 153 151 153 158 158 156 157 157 155 168 172 177 181 177 179 176 174 172 170 171 168 166 168 170 173 174 175 175 171 167 166 167 165 160 156 154 155 154 155 157 158 159 158 157 157 160 157 153 151 157 167 160 149 141 141 142 147 157 157 153 149
16 312 115 176 232 252 258 259 252 268 261 204 219 218 179 185 187 203 197 220 217 200 255 136 118 140 118 117 213 248 224 210 216 191 157 155 153 154 155 154 154 158 161 165 170 178 178 182 187 183 181 179 174 172 173 173 171 171 174 176 179 178 177 178 174 169 169 171 168 164 161 158 158 157 157 160 162 163 164 163 164 168 166 161 156 162 178 163 154 148 148 151 147 156 161 161 156
67 292 87 237 227 224 235 260 263 269 278 191 211 224 171 176 185 205 195 209 219 203 240 198 150 133 110 163 242 236 215 209 206 159 154 156 154 157 159 155 157 165 171 180 183 183 181 181 184 181 176 176 172 173 176 176 176 177 180 181 183 182 180 179 174 170 172 174 170 168 166 162 162 160 161 164 166 168 168 169 173 176 173 170 161 165 189 172 159 156 152 157 155 159 163 166 165
175 201 141 254 217 220 257 265 264 269 305 237 220 209 152 164 190 200 189 198 203 200 234 200 147 123 122 171 220 199 213 209 186 134 152 155 156 159 160 160 166 180 185 190 187 182 182 178 179 178 174 177 176 178 181 181 181 182 182 182 182 182 181 179 174 172 174 176 172 170 169 165 165 164 165 169 169 171 172 175 180 183 180 176 170 181 198 185 171 167 159 163 165 168 166 163 164
195 184 142 255 251 235 255 274 292 20 286 256 254 196 144 161 200 198 178 189 206 199 208 174 143 121 126 134 185 208 223 207 172 132 150 152 160 161 163 169 180 193 191 189 183 178 181 179 178 178 177 181 182 182 185 186 186 184 183 182 181 180 179 177 174 174 175 178 175 172 172 169 168 168 170 171 172 174 174 181 186 189 188 184 185 195 202 196 186 179 169 170 173 179 175 163 161
187 178 149 258 299 310 256 264 288 21 258 253 261 205 129 167 198 195 185 187 214 209 146 146 148 130 169 165 189 216 218 199 166 142 148 147 157 163 170 179 192 195 187 185 178 176 182 184 182 181 180 183 186 186 186 187 187 187 184 182 181 179 179 175 174 176 176 180 180 174 175 173 171 172 173 174 175 177 177 185 194 197 198 193 192 200 206 200 190 185 183 178 177 184 181 165 156
181 167 246 282 301 334 316 283 288 357 277 254 275 19 74 164 188 186 198 183 191 177 121 157 178 121 166 169 195 204 203 184 159 148 145 142 150 161 176 188 197 191 184 187 181 178 184 188 186 185 185 187 190 188 186 186 188 189 186 183 181 180 178 175 175 176 177 183 183 176 177 177 174 175 176 178 178 179 182 188 201 208 209 202 194 200 207 198 189 190 192 188 184 183 181 165 144
165 176 250 284 289 308 292 282 286 242 272 280 316 26 68 27 202 197 186 143 131 128 96 48 336 26 152 187 192 184 180 166 154 146 140 139 146 159 182 194 194 186 187 191 186 182 184 189 189 189 188 190 193 189 187 187 187 188 186 184 182 181 178 176 176 176 178 182 181 177 180 179 176 178 180 181 180 181 186 190 205 214 216 207 194 201 208 196 188 194 197 195 191 182 181 170 140
156 179 219 248 260 269 235 225 234 217 284 300 314 24 63 359 226 227 45 64 98 85 45 24 18 18 63 117 149 159 159 155 152 146 142 145 153 168 190 195 186 184 191 192 190 185 183 187 190 191 190 192 194 191 189 187 186 187 187 184 182 182 178 176 176 178 182 181 179 181 184 183 180 181 183 182 182 184 188 193 205 215 219 212 198 205 208 196 191 196 201 198 194 187 184 177 143
185 186 198 229 221 232 236 252 265 223 245 299 298 349 14 279 217 168 86 164 125 88 27 19 45 34 59 104 132 145 151 152 152 149 150 158 169 184 194 187 177 185 190 191 192 187 186 188 189 191 192 193 194 193 193 189 186 189 188 185 183 182 180 177 177 180 184 181 180 184 187 189 186 185 186 184 185 186 188 195 204 211 217 216 201 202 199 192 193 198 202 200 197 194 188 184 149
216 180 205 242 221 242 259 261 265 230 204 315 303 319 316 277 224 174 164 158 153 145 162 128 132 156 124 124 133 144 150 152 155 154 159 173 187 198 193 178 179 188 190 192 193 188 188 190 190 191 193 193 194 195 194 191 190 190 190 187 186 183 181 180 180 182 186 185 184 187 190 192 191 190 189 187 189 189 187 196 205 207 211 213 197 189 187 187 192 198 202 201 200 203 200 197 178
240 172 203 237 204 246 260 235 255 279 158 135 283 310 312 291 273 227 171 148 203 201 190 179 176 174 158 154 148 154 156 154 157 159 167 182 199 204 193 181 187 191 190 193 193 188 189 193 192 190 193 194 194 197 194 193 194 193 191 190 190 187 184 182 183 186 190 191 188 188 191 193 194 192 192 192 191 190 188 194 204 206 204 207 196 183 183 185 192 198 204 206 207 212 214 214 211
240 233 225 242 198 239 266 236 243 281 257 237 305 304 277 288 309 251 192 188 231 211 205 183 163 168 167 164 162 163 162 159 161 167 175 191 207 205 189 182 188 193 191 193 195 192 191 193 193 191 196 196 195 199 197 196 197 196 193 191 193 191 187 184 186 191 193 195 190 188 190 193 195 193 195 196 193 191 191 195 202 206 201 201 196 183 183 189 197 203 209 214 215 223 226 226 228
216 261 252 254 240 242 273 275 250 266 288 290 279 243 234 287 301 263 211 227 235 200 187 167 165 173 166 160 162 168 169 170 169 174 181 195 211 204 187 185 186 193 193 195 199 195 192 192 192 194 198 199 196 198 199 198 199 199 194 191 194 192 189 187 190 194 196 196 191 189 191 192 194 195 198 198 194 193 195 197 199 204 200 196 194 187 190 195 203 209 215 219 222 232 236 236 238
195 269 279 267 259 256 270 274 278 293 288 257 244 277 271 255 264 266 246 248 227 184 165 160 170 164 156 158 167 175 176 175 176 182 186 195 210 204 191 196 194 194 195 197 201 197 194 193 193 196 200 202 199 199 200 198 200 200 194 192 194 194 193 192 193 194 196 199 194 192 192 194 196 198 201 201 197 196 198 199 198 204 200 194 192 190 196 201 210 217 222 225 228 233 239 244 245
179 279 275 285 286 281 284 277 276 277 255 248 268 290 261 241 235 243 253 253 189 165 156 154 156 152 162 171 175 180 180 179 178 185 191 200 209 199 190 202 198 195 197 198 201 199 196 194 194 197 201 203 201 201 200 198 201 200 196 195 194 195 197 196 195 192 195 200 198 195 194 196 200 203 205 203 202 201 201 200 199 202 198 192 191 191 200 208 215 223 225 226 230 235 243 248 251
289 283 282 300 291 276 279 279 271 265 247 238 264 270 264 257 249 262 258 241 169 155 149 150 154 164 177 179 181 184 183 182 178 186 194 202 207 191 185 201 198 197 201 201 201 200 198 196 196 199 202 204 203 202 201 200 201 201 200 200 197 196 199 199 196 193 196 198 197 197 195 198 205 208 208 206 206 206 204 203 202 199 196 193 193 195 203 214 219 229 237 235 239 246 256 271 276
281 297 307 305 295 282 279 286 285 286 277 239 234 259 268 263 181 260 267 207 153 149 151 162 166 173 183 183 186 186 187 187 180 183 191 200 205 190 184 197 198 196 199 200 202 201 198 197 198 200 203 206 205 202 202 201 203 204 202 202 200 199 199 201 200 196 198 199 198 197 195 197 206 212 212 208 207 209 208 207 204 201 203 202 203 206 211 225 235 248 259 258 260 263 275 295 293
298 318 319 309 312 310 301 296 288 291 286 257 222 251 269 267 210 235 251 176 151 153 160 175 176 180 185 184 186 186 196 192 180 180 186 194 199 189 185 198 198 192 195 199 201 202 199 198 199 201 204 207 207 205 203 203 206 206 203 202 202 201 200 202 204 203 203 203 200 200 199 199 204 209 212 210 209 210 209 210 212 214 216 215 215 219 222 234 246 254 263 267 271 269 271 295 290
315 332 324 308 323 313 295 291 279 262 261 256 196 270 275 260 236 235 232 159 152 158 168 184 186 184 184 181 184 191 200 192 182 185 191 194 195 188 188 201 200 191 194 198 200 201 200 200 200 202 205 207 209 209 207 207 209 207 203 202 201 201 202 204 206 208 209 206 203 202 203 203 203 205 209 211 212 211 211 217 225 229 229 229 229 229 232 238 240 236 237 248 255 240 230 218 130
321 325 320 308 331 302 283 275 260 249 245 234 149 238 267 253 248 250 232 142 150 165 180 190 189 183 183 182 185 195 199 191 189 192 194 193 192 187 189 198 199 193 192 193 198 200 201 201 200 201 204 207 209 209 209 210 209 206 202 201 200 201 203 206 210 212 213 210 206 205 206 208 206 204 208 211 211 209 212 221 230 233 230 234 239 238 240 239 228 219 220 230 228 214 220 224 197
323 318 315 311 331 288 286 286 248 250 243 201 155 216 253 253 257 259 236 150 158 176 189 190 187 186 184 185 188 195 201 201 196 192 192 193 188 185 188 193 195 193 189 190 196 198 200 202 200 200 203 206 208 208 209 210 208 203 201 200 201 202 205 209 213 215 215 211 208 208 208 211 210 205 206 210 212 211 213 217 217 218 215 220 232 237 238 230 220 221 225 231 230 229 240 243 256
336 311 308 300 255 279 294 301 266 256 258 159 156 218 254 252 261 262 229 168 172 179 188 188 187 191 186 186 192 195 203 208 202 191 190 192 186 182 185 189 191 192 190 190 193 195 198 200 201 201 201 203 204 205 208 210 207 203 202 203 204 207 210 213 216 216 215 211 209 209 209 210 210 209 208 211 216 216 216 217 206 200 201 207 218 225 222 216 215 225 226 224 228 237 250 237 240
342 221 274 277 260 285 303 310 302 292 23 141 179 215 266 252 258 261 228 183 191 183 181 187 191 193 187 186 190 192 200 204 203 192 189 191 188 183 183 187 189 192 192 190 190 193 196 199 201 201 201 202 202 204 207 208 206 204 204 206 208 211 214 216 218 217 214 211 208 209 210 210 209 211 212 214 220 219 218 220 213 204 204 208 215 219 217 215 217 220 215 217 226 237 246 231 230
307 242 255 269 264 275 291 304 313 345 42 186 212 216 253 261 265 270 255 201 205 195 177 185 194 193 187 185 186 190 195 197 201 193 187 190 190 184 182 186 188 190 191 190 190 194 198 200 201 201 202 202 203 205 208 210 209 207 207 210 211 213 216 219 221 221 216 211 210 211 212 213 213 212 212 213 219 219 219 223 221 214 211 206 205 210 211 212 213 213 213 215 223 234 232 217 219
258 267 261 281 279 267 273 282 289 322 355 285 224 220 247 260 268 279 272 211 199 209 191 183 192 190 183 183 186 191 196 200 204 192 186 188 189 182 180 184 186 187 188 189 191 194 198 200 200 200 200 201 203 206 208 210 212 211 209 211 213 214 216 219 221 222 219 214 215 216 216 217 218 217 214 213 214 216 219 222 219 215 213 204 192 195 198 200 201 203 210 215 224 235 235 222 211
257 272 270 281 287 278 277 275 266 282 323 281 235 225 243 255 262 274 276 232 194 218 213 179 186 188 180 183 189 189 197 209 206 189 184 187 188 181 177 181 183 184 186 187 189 192 195 196 196 198 199 200 201 203 205 206 208 208 208 209 212 213 214 217 218 220 220 217 217 218 217 218 221 220 217 214 213 212 215 216 214 214 215 207 192 193 199 206 206 207 211 217 228 233 235 234 218
263 277 277 273 278 281 280 277 278 299 359 267 248 241 254 258 257 255 260 254 228 237 224 172 177 187 183 187 191 189 199 211 197 182 182 186 188 180 174 177 178 179 183 185 187 190 192 192 193 195 197 199 199 200 201 202 202 201 203 205 207 209 211 213 216 218 220 218 217 217 215 217 220 219 217 216 214 214 214 213 214 219 221 217 208 201 202 212 218 219 216 219 230 232 230 231 225
258 264 269 274 272 272 273 272 284 316 51 280 279 286 281 274 270 266 266 267 254 245 224 175 177 188 190 189 188 189 202 205 170 175 179 181 184 178 172 173 175 177 181 185 188 189 189 191 193 195 197 199 200 201 200 200 200 200 200 201 202 205 208 209 212 216 219 218 218 215 213 215 216 215 216 217 217 218 218 217 220 226 228 225 221 214 209 212 218 221 220 223 229 230 226 225 223
257 259 262 272 265 267 277 279 287 318 63 287 289 292 281 276 282 288 290 274 253 248 232 186 176 186 190 188 186 188 198 191 167 177 175 175 182 179 173 173 178 181 181 185 188 188 187 189 192 194 196 198 201 202 200 199 200 201 201 200 199 201 206 210 212 215 218 219 221 219 216 215 215 217 219 219 220 221 222 224 229 234 232 229 228 223 220 219 220 222 226 229 223 218 217 220 220
255 255 254 260 260 261 277 284 294 316 258 267 291 301 283 293 306 298 289 270 261 275 268 211 175 183 186 185 186 186 189 187 176 177 172 171 178 181 178 176 179 180 181 183 186 186 187 190 193 194 195 198 200 202 202 201 200 199 201 203 203 202 206 210 214 216 218 220 222 221 220 217 218 221 223 223 223 223 224 227 234 240 234 231 232 229 228 228 228 226 228 228 218 208 205 210 214
256 252 248 251 254 244 237 265 305 341 321 278 343 355 308 311 326 304 302 313 334 336 336 356 148 184 187 185 186 184 184 183 175 173 174 173 179 185 184 179 178 179 182 186 187 187 189 191 194 195 195 198 201 204 204 201 198 194 196 200 202 203 206 208 210 212 214 218 221 220 219 219 220 224 225 226 226 226 228 228 233 235 229 226 228 230 235 238 235 232 231 229 221 213 208 206 211
266 256 246 239 234 233 245 274 335 5 322 293 42 19 301 301 316 301 326 9 12 6 7 6 10 149 174 181 185 187 188 183 175 174 177 179 180 181 182 180 179 182 187 190 190 190 191 192 194 195 196 198 202 204 202 200 198 195 192 190 190 194 199 203 206 208 210 215 219 219 219 220 222 224 226 227 227 227 228 227 227 226 221 220 226 228 231 238 239 236 235 234 228 223 218 210 209
262 254 245 238 231 245 270 293 328 312 274 278 315 187 269 305 326 320 5 40 20 6 9 357 353 19 136 174 175 182 192 186 177 178 175 175 177 176 182 185 184 186 190 192 192 193 193 194 195 196 197 198 200 201 199 198 198 197 197 195 191 192 195 201 206 209 212 216 218 219 220 222 224 226 227 227 225 226 226 224 225 225 223 221 226 230 229 233 239 239 239 240 236 232 228 221 217
249 264 292 298 304 301 290 298 290 236 257 308 325 182 234 296 296 307 13 52 28 6 1 352 345 350 5 163 178 182 186 183 177 176 173 174 181 184 185 187 188 188 188 190 193 195 196 197 197 198 199 199 199 199 197 197 198 199 200 200 198 197 199 203 206 209 214 216 216 218 220 223 225 226 226 225 224 225 225 225 225 225 227 225 226 232 232 232 238 241 242 243 240 237 235 233 229
241 253 290 312 290 271 269 289 270 258 335 316 310 341 318 278 276 314 10 60 39 9 355 350 343 337 353 46 166 180 178 176 173 171 174 181 190 191 185 183 186 187 185 189 194 197 197 198 199 200 201 200 199 198 198 198 200 201 201 201 201 201 201 203 206 209 213 214 215 217 219 222 224 224 225 224 225 226 225 227 226 225 229 229 227 231 233 235 240 242 243 244 244 243 241 240 237
255 261 277 301 281 263 269 255 251 334 14 267 277 334 60 273 287 328 13 68 73 28 3 344 341 342 353 32 80 125 150 162 169 172 177 185 190 187 179 178 183 187 188 190 192 196 197 196 198 200 202 202 201 199 198 199 201 201 202 202 202 201 201 202 204 208 211 213 215 217 220 222 222 223 223 224 227 228 226 226 224 224 228 230 229 232 234 237 242 244 245 247 248 247 243 240 239
272 302 351 352 344 355 6 10 93 23 300 254 259 192 114 282 290 282 297 143 164 155 75 21 1 7 4 16 57 83 103 129 145 143 143 158 164 164 167 173 181 186 190 190 190 192 194 195 196 199 202 204 204 202 200 201 202 202 204 205 205 204 201 199 200 205 209 212 215 219 222 223 222 222 221 222 225 225 225 225 221 221 226 228 231 234 234 237 243 244 244 246 248 247 243 239 239
260 315 51 358 330 357 10 357 31 319 264 255 248 161 116 211 266 248 236 203 169 189 133 102 66 36 20 12 35 60 77 101 116 118 118 123 136 152 162 170 179 185 190 192 193 192 191 191 192 195 201 203 205 205 202 203 203 204 207 209 209 208 205 202 202 205 208 210 215 219 221 222 223 223 222 222 222 218 221 223 221 222 227 230 233 235 234 236 242 243 242 243 244 243 240 238 239
47 48 46 26 331 349 353 317 317 245 254 251 223 148 126 235 244 223 214 192 150 156 158 123 101 80 56 27 30 49 59 66 84 119 140 143 150 161 166 174 182 188 192 193 193 191 188 187 189 192 198 203 207 207 206 207 206 207 210 211 213 212 209 207 206 207 208 209 214 216 217 218 221 224 224 225 223 218 217 220 224 231 232 232 233 235 235 235 240 242 241 240 240 240 239 238 238
345 312 104 82 17 336 290 275 285 270 267 269 259 273 277 281 271 220 199 188 158 145 141 135 112 96 84 54 39 51 58 56 55 83 134 158 161 167 181 189 191 192 194 194 193 190 183 177 182 190 198 204 209 210 210 212 212 212 213 213 215 215 213 212 210 209 209 209 211 213 214 216 218 222 225 228 229 225 219 217 220 228 231 231 234 236 236 236 238 240 240 240 242 243 240 238 237
278 218 146 155 171 216 253 234 236 260 268 284 304 271 219 231 266 209 158 150 160 141 133 128 115 104 97 71 44 46 56 54 47 54 91 148 156 173 187 191 194 197 198 189 169 144 113 97 157 192 206 210 211 213 213 214 215 215 216 215 216 217 217 216 215 213 210 208 208 209 212 216 219 221 226 232 234 231 228 223 220 224 227 230 234 236 236 236 237 238 241 244 246 246 242 238 237
269 335 56 258 194 185 244 217 204 239 275 284 285 234 209 215 266 102 110 123 139 133 125 115 107 103 100 89 70 57 53 50 51 51 65 124 156 175 182 193 203 198 150 96 94 99 109 162 209 211 211 212 213 214 214 215 215 215 216 217 217 217 218 219 217 215 212 209 208 208 211 216 220 222 227 234 235 232 233 231 227 228 231 233 235 235 234 236 237 237 239 242 244 245 242 240 237
282 359 311 251 183 135 8 287 279 12 295 272 242 247 283 13 6 37 86 128 149 152 136 118 119 119 105 106 114 102 80 68 69 68 77 116 175 177 180 199 193 89 65 73 98 136 170 197 214 217 215 212 213 213 214 216 215 214 216 217 217 216 217 219 220 217 214 211 210 210 213 216 219 223 228 232 233 231 232 231 229 229 231 233 232 231 233 236 238 237 237 240 243 243 241 240 239
42 333 264 259 44 70 74 331 325 351 288 280 257 227 234 137 243 265 169 182 184 179 150 123 127 128 118 124 131 118 106 92 80 76 80 82 122 202 211 205 115 84 87 114 145 177 195 205 215 221 220 217 215 215 215 216 216 216 216 217 218 216 215 218 222 222 218 213 211 211 213 216 219 224 227 230 233 233 232 231 230 230 232 230 227 228 234 238 238 236 236 240 244 243 241 240 239
75 221 263 323 325 301 44 108 289 283 267 282 284 243 221 202 205 197 198 204 192 184 169 143 139 135 128 129 125 112 102 88 71 61 62 59 53 39 10 125 108 120 160 176 186 199 206 213 219 223 224 221 220 219 218 219 219 219 219 219 220 219 216 216 220 223 223 218 215 213 213 216 220 224 226 229 233 235 235 234 234 235 234 230 226 229 233 234 234 235 236 238 240 240 239 238 238
348 342 347 17 186 219 219 176 171 205 240 261 278 277 245 232 206 188 196 200 184 179 173 156 152 148 138 129 122 111 104 100 85 73 67 62 62 52 59 99 134 164 174 170 187 201 207 219 226 229 228 223 223 222 220 220 219 218 219 219 220 220 219 217 216 219 223 224 222 218 216 217 219 223 226 229 234 236 235 233 233 235 234 229 225 227 230 230 231 234 237 238 236 235 235 236 235
336 340 333 325 307 237 249 260 155 162 217 234 256 276 261 253 219 192 195 192 182 176 165 162 167 156 141 135 135 131 133 134 109 89 83 76 73 63 67 97 136 163 172 177 189 198 209 219 225 230 232 228 226 226 224 223 220 218 217 216 217 218 219 219 217 215 218 223 225 222 218 218 218 221 224 228 232 234 232 230 230 230 229 225 223 226 230 232 232 233 235 238 236 233 233 232 231
277 267 279 291 294 304 295 288 280 211 210 202 218 258 263 278 306 200 173 145 98 31 89 157 162 157 155 153 150 147 147 143 107 89 95 89 81 76 75 88 112 131 153 185 205 213 222 228 231 237 242 240 236 232 230 228 224 220 218 216 216 217 217 218 219 217 215 216 220 221 220 218 218 219 222 226 228 229 230 232 233 231 227 223 224 227 229 230 230 231 232 235 235 233 231 228 228